TimeMST,TemperatureF,Dew PointF,Humidity,Sea Level PressureIn,VisibilityMPH,Wind Direction,Wind SpeedMPH,Gust SpeedMPH,PrecipitationIn,Events,Conditions,WindDirDegrees,DateUTC
12:53 AM,36.0,30.9,82,30.09,10.0,NE,6.9,-,N/A,,Mostly Cloudy,50,2012-11-19 07:53:00
1:53 AM,35.1,30.0,82,30.08,10.0,SW,5.8,-,N/A,,Overcast,230,2012-11-19 08:53:00
2:53 AM,33.1,30.0,89,30.09,10.0,West,3.5,-,N/A,,Scattered Clouds,280,2012-11-19 09:53:00
3:53 AM,30.0,28.0,92,30.10,10.0,NNW,3.5,-,N/A,,Clear,330,2012-11-19 10:53:00
4:53 AM,28.9,26.1,89,30.09,10.0,NNW,6.9,-,N/A,,Clear,340,2012-11-19 11:53:00
5:53 AM,28.0,26.1,92,30.10,10.0,WNW,5.8,-,N/A,,Clear,300,2012-11-19 12:53:00
6:53 AM,25.0,24.1,96,30.14,10.0,NNW,6.9,-,N/A,,Clear,330,2012-11-19 13:53:00
7:53 AM,27.0,25.0,92,30.15,10.0,SW,6.9,-,N/A,,Clear,230,2012-11-19 14:53:00
8:53 AM,33.1,28.9,85,30.13,10.0,Calm,Calm,-,N/A,,Clear,0,2012-11-19 15:53:00
9:53 AM,37.9,32.0,79,30.12,10.0,SSW,3.5,-,N/A,,Clear,200,2012-11-19 16:53:00
10:53 AM,46.0,33.1,61,30.09,10.0,North,3.5,-,N/A,,Clear,10,2012-11-19 17:53:00
11:53 AM,46.9,33.1,59,30.07,10.0,North,6.9,-,N/A,,Clear,360,2012-11-19 18:53:00
12:53 PM,50.0,35.1,57,30.06,10.0,NNW,8.1,-,N/A,,Clear,330,2012-11-19 19:53:00
1:53 PM,52.0,35.1,53,30.04,10.0,NNW,4.6,-,N/A,,Clear,340,2012-11-19 20:53:00
2:53 PM,51.1,35.1,54,30.05,10.0,NNW,4.6,-,N/A,,Clear,340,2012-11-19 21:53:00
3:53 PM,46.0,35.1,66,30.08,10.0,NNW,5.8,-,N/A,,Clear,330,2012-11-19 22:53:00
4:53 PM,37.9,30.9,76,30.11,10.0,NW,3.5,-,N/A,,Clear,320,2012-11-19 23:53:00
5:53 PM,33.1,28.9,85,30.13,10.0,West,4.6,-,N/A,,Clear,260,2012-11-20 00:53:00
6:53 PM,32.0,28.0,85,30.14,10.0,South,4.6,-,N/A,,Clear,190,2012-11-20 01:53:00
7:53 PM,30.0,27.0,88,30.12,10.0,Calm,Calm,-,N/A,,Clear,0,2012-11-20 02:53:00
8:53 PM,30.0,27.0,88,30.10,10.0,SSW,3.5,-,N/A,,Clear,200,2012-11-20 03:53:00
9:53 PM,30.9,27.0,85,30.06,10.0,Calm,Calm,-,N/A,,Clear,0,2012-11-20 04:53:00
10:53 PM,30.9,26.1,82,30.04,10.0,Calm,Calm,-,N/A,,Clear,0,2012-11-20 05:53:00
11:53 PM,28.0,25.0,88,30.04,10.0,WNW,3.5,-,N/A,,Clear,300,2012-11-20 06:53:00